457  
ASUS41 KBGM 172110  
RWRBGM  
 
REGIONAL WEATHER ROUNDUP  
NATIONAL WEATHER SERVICE BINGHAMTON NY  
500 PM EDT TUE JUL 17 2018  
 
NOTE: "FAIR" INDICATES FEW OR NO CLOUDS BELOW 12,000 FEET WITH NO  
SIGNIFICANT WEATHER AND/OR S TO VISIBILITY
.  
 
* = STATION(S) THAT DOES NOT REPORT PRECIPITATION, SUCH AS RAIN,  
SNOW, ETC, ALSO NO THUNDER OR FOG.
 
 
NYZ009-015>018-022>025-036-037-044>046-055>057-062-172200   
..CENTRAL NEW YORK
 
 
 
CITY SKY/WX TMP DP RH WIND PRES REMARKS
 
BINGHAMTON FAIR 74 60 61 N15 29.85R  
CORTLAND FAIR 79 54 41 W8 29.85S  
DANSVILLE PTSUNNY 84 53 34 NW17 29.86R  
ELMIRA FAIR 83 60 45 NW8 29.82R  
SENECA FALLS CLEAR 79 52 38 NW16G23 29.85R  
ITHACA FAIR 80 57 45 N14 29.85S  
HAMILTON SUNNY 79 54 41 NW10 29.84S  
MONTICELLO N/A N/A N/A N/A MISG N/A  
ONEONTA SUNNY 73 64 73 NW6 29.85S  
PENN YAN PTSUNNY 81 54 39 W9G17 29.86R  
ROME FAIR 83 55 38 W10 29.80F  
SIDNEY SUNNY 75 64 69 NW3 29.83R  
SYRACUSE PTSUNNY 81 57 43 NW18G24 29.82R  

 
 
PAZ038>040-043-044-047-048-072-172200   
..NORTHEAST PENNSYLVANIA
 
 
 
CITY SKY/WX TMP DP RH WIND PRES REMARKS
 
HAZLETON CLOUDY 75 72 88 W5 29.88F  
SCRANTON CLOUDY 75 72 90 SW5 29.82R  

 

 
KEY  
WCI = WIND CHILL INDEX  
VSB = VISIBILITY  
HX = HEAT INDEX  

 
 
 
CLICK HERE TO GO TO PREVIOUS BULLETINS.

The Nexlab NY Page
The Nexlab PA Page Main Text Page